AI5ON Weather Reports


Display with metric or nautical units.
time (UTC)temp
F
wind
direction
speed
MPH
gust
MPH
rain 1hr
in
rain 24hr
in
rain mn
in
humidity
%
barometer
mb
20260901082349 78 75 3.0 7.0 0.00 0.00 0.00 95 1014.6
20260901081844 78 90 1.0 3.0 0.00 0.00 0.00 95 1014.7
20260901081340 78 79 2.0 3.0 0.00 0.00 0.00 95 1014.7
20260901080839 78 70 2.0 3.0 0.00 0.00 0.00 94 1014.4
20260901080334 78 103 2.0 6.0 0.00 0.00 0.00 94 1014.6
20260901075833 78 92 2.0 3.0 0.00 0.00 0.00 94 1014.4
20260901075329 78 98 3.0 3.0 0.00 0.00 0.00 94 1014.5
20260901074824 78 88 2.0 6.0 0.00 0.00 0.00 94 1014.5
20260901074318 78 87 4.0 6.0 0.00 0.00 0.00 94 1014.5
20260901073814 78 94 2.0 3.0 0.00 0.00 0.00 94 1014.4
20260901073309 78 71 2.0 4.0 0.00 0.00 0.00 94 1014.6
20260901072806 78 66 2.0 4.0 0.00 0.00 0.00 94 1014.7
20260901072309 78 81 2.0 2.0 0.00 0.00 0.00 94 1015.0
20260901071800 78 82 2.0 2.0 0.00 0.00 0.00 93 1014.6
20260901071259 78 86 3.0 6.0 0.00 0.00 0.00 93 1015.0
20260901070758 79 103 2.0 4.0 0.00 0.00 0.00 93 1015.3
20260901070253 79 131 1.0 4.0 0.00 0.00 0.00 93 1015.2
20260901065753 79 139 3.0 3.0 0.00 0.00 0.00 92 1015.0
20260901065248 79 113 1.0 3.0 0.00 0.00 0.00 92 1015.2
20260901064744 79 78 2.0 4.0 0.00 0.00 0.00 91 1015.0
20260901064240 79 82 3.0 6.0 0.00 0.00 0.00 91 1015.2
20260901063738 79 87 4.0 6.0 0.00 0.00 0.00 91 1015.0
20260901063233 79 87 3.0 4.0 0.00 0.00 0.00 91 1015.1
20260901062729 79 86 3.0 6.0 0.00 0.00 0.00 91 1015.0
20260901062225 79 94 3.0 6.0 0.00 0.00 0.00 90 1015.1
20260901061721 79 92 3.0 3.0 0.00 0.00 0.00 90 1015.2
20260901061220 79 87 4.0 9.0 0.00 0.00 0.00 90 1015.2
20260901060715 79 99 4.0 6.0 0.00 0.00 0.00 90 1015.1
20260901060211 79 104 7.0 8.0 0.00 0.00 0.00 90 1015.2
20260901055706 79 77 4.0 6.0 0.00 0.00 0.00 90 1015.5
20260901055203 79 62 5.0 7.0 0.00 0.00 0.00 89 1015.3
20260901054700 79 90 4.0 7.0 0.00 0.00 0.00 89 1015.4
20260901054155 79 107 5.0 8.0 0.00 0.00 0.00 89 1015.4
20260901053651 79 78 1.0 4.0 0.00 0.00 0.00 89 1015.3
20260901053147 79 77 4.0 7.0 0.00 0.00 0.00 89 1015.3
20260901052642 79 54 6.0 8.0 0.00 0.00 0.00 88 1015.3
20260901052137 79 82 4.0 7.0 0.00 0.00 0.00 88 1015.3
20260901051636 79 79 4.0 7.0 0.00 0.00 0.00 89 1015.4
20260901051136 79 86 3.0 7.0 0.00 0.00 0.00 89 1015.4
20260901050631 79 82 5.0 6.0 0.00 0.00 0.00 89 1015.3
20260901050126 79 84 2.0 3.0 0.00 0.00 0.00 89 1015.7
20260901045621 79 84 2.0 3.0 0.00 0.08 0.08 90 1015.5
20260901045116 78 88 5.0 6.0 0.00 0.08 0.08 90 1015.5
20260901044612 78 70 2.0 3.0 0.00 0.08 0.08 91 1015.4
20260901044107 78 83 2.0 3.0 0.00 0.08 0.08 91 1015.5
20260901043603 78 81 1.0 3.0 0.00 0.08 0.08 91 1015.4
20260901043058 78 92 2.0 2.0 0.00 0.08 0.08 92 1015.5
20260901042557 78 87 1.0 3.0 0.00 0.08 0.08 92 1015.4
20260901042053 77 84 2.0 3.0 0.00 0.08 0.08 92 1015.5
20260901041548 77 77 2.0 2.0 0.00 0.08 0.08 92 1015.4
20260901041048 77 87 2.0 3.0 0.00 0.08 0.08 92 1015.6
20260901040548 77 82 1.0 2.0 0.00 0.08 0.08 92 1015.3
20260901040043 77 77 3.0 3.0 0.00 0.08 0.08 92 1015.5
20260901035541 78 85 2.0 2.0 0.00 0.08 0.08 92 1015.4
20260901035040 78 82 2.0 2.0 0.00 0.08 0.08 91 1015.4
20260901034540 78 70 1.0 2.0 0.00 0.08 0.08 91 1015.1
20260901034034 78 79 3.0 3.0 0.00 0.08 0.08 90 1015.2
20260901033533 78 78 3.0 3.0 0.00 0.08 0.08 89 1015.3
20260901033033 78 87 3.0 3.0 0.00 0.08 0.08 89 1015.3
20260901032532 78 86 3.0 4.0 0.00 0.08 0.08 89 1015.4
20260901032027 78 96 2.0 4.0 0.00 0.08 0.08 89 1015.4
20260901031523 78 82 1.0 3.0 0.00 0.08 0.08 89 1015.3
20260901031019 78 93 2.0 4.0 0.00 0.08 0.08 89 1015.1
20260901030519 78 98 1.0 4.0 0.00 0.08 0.08 89 1015.2
20260901030019 78 77 2.0 4.0 0.00 0.08 0.08 89 1015.1
20260901025513 78 92 3.0 3.0 0.00 0.08 0.08 88 1015.0
20260901025012 78 93 2.0 2.0 0.00 0.08 0.08 89 1015.1
20260901024508 78 96 2.0 2.0 0.00 0.08 0.08 89 1015.1
20260901024007 78 89 1.0 3.0 0.00 0.08 0.08 88 1015.0
20260901023507 79 73 2.0 2.0 0.00 0.08 0.08 87 1015.2
20260901023002 79 92 2.0 6.0 0.00 0.08 0.08 86 1015.1
20260901022458 79 104 2.0 3.0 0.00 0.08 0.08 85 1015.0
20260901021958 79 101 3.0 3.0 0.00 0.08 0.08 84 1014.9
20260901021454 79 92 4.0 4.0 0.00 0.08 0.08 84 1014.9
20260901020949 79 88 5.0 7.0 0.00 0.08 0.08 84 1014.9
20260901020444 80 85 4.0 6.0 0.00 0.08 0.08 83 1015.0
20260901015943 80 105 4.0 9.0 0.00 0.08 0.08 83 1015.0
20260901015440 80 91 4.0 4.0 0.00 0.08 0.08 83 1014.8
20260901014939 80 84 2.0 3.0 0.00 0.08 0.08 83 1014.7
20260901014435 80 94 5.0 4.0 0.00 0.08 0.08 82 1014.8
20260901013930 80 99 3.0 7.0 0.00 0.08 0.08 82 1014.6
20260901013426 80 87 2.0 3.0 0.00 0.08 0.08 81 1014.6
20260901012922 80 90 4.0 4.0 0.00 0.08 0.08 81 1014.6
20260901012416 80 87 2.0 3.0 0.00 0.08 0.08 80 1014.4
20260901011912 80 63 4.0 4.0 0.00 0.08 0.08 81 1014.5
20260901011408 80 78 3.0 6.0 0.00 0.08 0.08 81 1014.4
20260901010906 80 81 4.0 4.0 0.00 0.08 0.08 80 1014.4
20260901010401 81 82 2.0 3.0 0.00 0.08 0.08 80 1014.4
20260901005859 81 78 1.0 4.0 0.00 0.08 0.08 79 1014.4
20260901005355 81 80 2.0 3.0 0.00 0.08 0.08 78 1014.5
20260901004850 81 80 1.0 4.0 0.00 0.08 0.08 77 1014.4
20260901004349 82 88 2.0 4.0 0.00 0.08 0.08 77 1014.5
20260901003844 82 98 3.0 7.0 0.00 0.08 0.08 76 1014.6
20260901003339 82 71 3.0 8.0 0.00 0.08 0.08 77 1014.7
20260901002838 82 99 6.0 8.0 0.00 0.08 0.08 76 1014.6
20260901002337 83 86 6.0 10.0 0.00 0.08 0.08 75 1014.5
20260901001832 83 109 10.0 13.0 0.00 0.08 0.08 78 1014.5
20260901001327 82 100 2.0 3.0 0.00 0.08 0.08 79 1014.4
20260901000823 83 90 1.0 3.0 0.00 0.08 0.08 79 1014.5
20260901000318 83 81 2.0 3.0 0.00 0.08 0.08 78 1014.6
20260831235816 83 95 2.0 3.0 0.00 0.08 0.08 77 1014.6
20260831235312 83 88 2.0 3.0 0.00 0.08 0.08 77 1014.6
20260831234807 84 77 2.0 6.0 0.00 0.08 0.08 76 1014.7
20260831234307 84 76 1.0 4.0 0.00 0.08 0.08 76 1014.6
20260831233803 84 93 2.0 3.0 0.00 0.08 0.08 75 1014.6
20260831233258 84 89 3.0 3.0 0.00 0.08 0.08 74 1014.7
20260831232752 84 85 2.0 4.0 0.00 0.08 0.08 73 1014.7
20260831232249 84 93 3.0 3.0 0.00 0.08 0.08 73 1014.6
20260831231744 84 100 3.0 4.0 0.00 0.08 0.08 72 1014.5
20260831231241 85 68 4.0 7.0 0.00 0.08 0.08 72 1014.8
20260831230736 85 84 4.0 4.0 0.00 0.08 0.08 71 1014.6
20260831230231 85 87 2.0 6.0 0.00 0.08 0.08 71 1014.7
20260831225730 85 120 4.0 6.0 0.00 0.08 0.08 71 1014.8
20260831225226 85 108 5.0 8.0 0.00 0.08 0.08 69 1014.9
20260831224720 85 89 4.0 7.0 0.00 0.08 0.08 69 1015.1
20260831224216 85 94 3.0 7.0 0.00 0.08 0.08 69 1015.0
20260831223711 85 68 6.0 13.0 0.00 0.08 0.08 68 1014.9
20260831223208 85 72 4.0 7.0 0.00 0.08 0.08 69 1014.7
20260831222703 85 85 5.0 9.0 0.00 0.08 0.08 69 1014.8
20260831222159 85 110 4.0 6.0 0.00 0.08 0.08 71 1015.0
20260831221654 85 92 3.0 7.0 0.00 0.08 0.08 72 1015.1
20260831221149 85 101 5.0 8.0 0.00 0.08 0.08 73 1015.1
20260831220644 85 107 3.0 8.0 0.00 0.08 0.08 74 1015.2
20260831220139 86 101 4.0 10.0 0.00 0.08 0.08 73 1015.3
20260831215634 86 115 4.0 6.0 0.00 0.08 0.08 72 1015.1
20260831215130 86 89 5.0 7.0 0.00 0.08 0.08 71 1015.0
20260831214627 86 105 5.0 7.0 0.00 0.08 0.08 71 1015.1
20260831214123 87 121 4.0 8.0 0.00 0.08 0.08 70 1015.1
20260831213620 87 96 3.0 6.0 0.00 0.08 0.08 71 1015.0
20260831213115 87 98 5.0 9.0 0.00 0.08 0.08 69 1014.8
20260831212611 87 133 10.0 16.0 0.00 0.08 0.08 70 1014.8
20260831212107 87 109 7.0 9.0 0.00 0.08 0.08 70 1014.8
20260831211607 87 69 5.0 10.0 0.00 0.08 0.08 71 1014.8
20260831211106 88 90 3.0 6.0 0.00 0.08 0.08 71 1014.8
20260831210601 88 60 4.0 7.0 0.00 0.08 0.08 72 1014.9
20260831210057 88 86 2.0 3.0 0.00 0.08 0.08 71 1014.9
20260831205556 88 93 4.0 6.0 0.00 0.08 0.08 72 1014.9
20260831205053 87 99 1.0 4.0 0.00 0.08 0.08 73 1015.1
20260831204547 87 61 2.0 6.0 0.00 0.08 0.08 75 1015.3
20260831204045 87 92 2.0 3.0 0.00 0.08 0.08 76 1015.1
20260831203540 87 60 2.0 3.0 0.00 0.08 0.08 76 1015.0
20260831203039 87 86 2.0 3.0 0.00 0.08 0.08 76 1015.1
20260831202533 87 72 4.0 9.0 0.00 0.08 0.08 74 1015.2
20260831202033 87 77 4.0 6.0 0.00 0.08 0.08 75 1015.2
20260831201532 86 63 3.0 3.0 0.00 0.08 0.08 76 1015.4
20260831201027 86 75 3.0 4.0 0.00 0.08 0.08 77 1015.5
20260831200523 85 80 3.0 3.0 0.00 0.08 0.08 79 1015.5
20260831200018 85 90 2.0 2.0 0.00 0.08 0.08 81 1015.4
20260831195514 84 80 0.0 2.0 0.00 0.08 0.08 83 1015.2
20260831195014 84 82 4.0 4.0 0.00 0.08 0.08 81 1015.2
20260831194509 83 114 2.0 3.0 0.00 0.08 0.08 84 1015.4
20260831194008 82 88 3.0 6.0 0.00 0.08 0.08 84 1015.2
20260831193504 82 94 2.0 6.0 0.00 0.08 0.08 85 1015.3
20260831192958 81 84 3.0 3.0 0.00 0.08 0.08 87 1015.3
20260831192453 80 73 0.0 1.0 0.00 0.08 0.08 89 1015.4
20260831191948 80 71 2.0 2.0 0.00 0.08 0.08 91 1015.9
20260831191445 79 73 1.0 1.0 0.00 0.08 0.08 92 1016.0
20260831190941 78 73 1.0 1.0 0.00 0.08 0.08 93 1015.9
20260831190435 78 72 3.0 3.0 0.00 0.08 0.08 93 1016.0
20260831185935 78 69 1.0 4.0 0.35 0.08 0.08 92 1016.4
20260831185431 78 100 4.0 7.0 0.42 0.07 0.07 90 1016.5
20260831184930 80 84 6.0 10.0 0.07 0.01 0.01 86 1016.4
20260831184425 85 111 13.0 17.0 0.00 0.00 0.00 75 1016.4
20260831183921 90 107 17.0 26.0 0.00 0.00 0.00 62 1015.9
20260831183420 91 98 8.0 9.0 0.00 0.00 0.00 59 1015.7
20260831182919 92 107 8.0 9.0 0.00 0.00 0.00 58 1015.7
20260831182415 92 87 6.0 10.0 0.00 0.00 0.00 61 1015.9
20260831181910 91 64 4.0 7.0 0.00 0.00 0.00 63 1015.8
20260831181406 91 73 9.0 14.0 0.00 0.00 0.00 63 1015.8
20260831180905 91 73 2.0 8.0 0.00 0.00 0.00 63 1015.9
20260831180400 91 108 5.0 9.0 0.00 0.00 0.00 62 1016.0
20260831175859 91 60 3.0 7.0 0.00 0.00 0.00 66 1016.0
20260831175356 89 70 5.0 10.0 0.00 0.00 0.00 65 1016.4
20260831174852 89 69 10.0 11.0 0.00 0.00 0.00 64 1016.2
20260831174347 88 86 1.0 3.0 0.00 0.00 0.00 71 1016.2
20260831173846 89 42 5.0 9.0 0.00 0.00 0.00 67 1016.3
20260831173340 90 27 4.0 7.0 0.00 0.00 0.00 66 1016.1
20260831172835 91 68 6.0 8.0 0.00 0.00 0.00 65 1016.3
20260831172331 88 90 1.0 7.0 0.00 0.00 0.00 68 1016.4
20260831171830 88 81 4.0 10.0 0.00 0.00 0.00 67 1016.6
20260831171327 89 56 1.0 4.0 0.00 0.00 0.00 67 1016.6
20260831170824 89 60 4.0 7.0 0.00 0.00 0.00 66 1016.6
20260831170320 88 35 3.0 7.0 0.00 0.00 0.00 66 1016.6
20260831165816 89 81 6.0 8.0 0.00 0.00 0.00 65 1016.7
20260831165312 89 108 5.0 9.0 0.00 0.00 0.00 67 1016.8
20260831164808 88 111 5.0 9.0 0.00 0.00 0.00 67 1016.7
20260831164304 89 65 3.0 8.0 0.00 0.00 0.00 68 1016.6
20260831163759 88 78 4.0 10.0 0.00 0.00 0.00 69 1016.7
20260831163255 89 78 4.0 9.0 0.00 0.00 0.00 67 1016.7
20260831162753 89 90 8.0 11.0 0.00 0.00 0.00 66 1016.8
20260831162249 89 36 7.0 10.0 0.00 0.00 0.00 68 1016.8
20260831161748 88 65 6.0 8.0 0.00 0.00 0.00 67 1016.9
20260831161244 87 56 2.0 7.0 0.00 0.00 0.00 71 1016.9
20260831160744 87 71 6.0 8.0 0.00 0.00 0.00 70 1016.7
20260831160239 86 70 5.0 9.0 0.00 0.00 0.00 72 1016.7
20260831155739 87 83 2.0 8.0 0.00 0.00 0.00 72 1016.8
20260831155234 88 95 4.0 9.0 0.00 0.00 0.00 71 1016.8
20260831154730 89 76 3.0 9.0 0.00 0.00 0.00 69 1016.9
20260831154226 89 18 6.0 8.0 0.00 0.00 0.00 70 1016.9
20260831153725 87 57 4.0 8.0 0.00 0.00 0.00 74 1017.0
20260831153221 87 87 3.0 7.0 0.00 0.00 0.00 74 1017.0
20260831152716 87 83 2.0 6.0 0.00 0.00 0.00 74 1017.1
20260831152212 88 75 9.0 11.0 0.00 0.00 0.00 68 1017.0
20260831151712 87 86 4.0 6.0 0.00 0.00 0.00 74 1016.9
20260831151206 89 104 3.0 4.0 0.00 0.00 0.00 71 1017.1
20260831150702 88 70 5.0 7.0 0.00 0.00 0.00 72 1017.1
20260831150157 87 75 2.0 7.0 0.00 0.00 0.00 77 1017.1
20260831145656 87 83 6.0 9.0 0.00 0.00 0.00 76 1017.1
20260831145153 87 82 4.0 7.0 0.00 0.00 0.00 75 1017.0
20260831144648 86 74 3.0 6.0 0.00 0.00 0.00 77 1016.9
20260831144144 87 79 4.0 11.0 0.00 0.00 0.00 76 1016.9
20260831143643 86 78 2.0 4.0 0.00 0.00 0.00 81 1017.0
20260831143139 85 48 3.0 4.0 0.00 0.00 0.00 81 1017.0
20260831142635 84 77 4.0 7.0 0.00 0.00 0.00 82 1017.0
20260831142136 84 81 2.0 4.0 0.00 0.00 0.00 82 1017.0
20260831141635 84 54 2.0 8.0 0.00 0.00 0.00 81 1017.0
20260831141130 84 99 1.0 4.0 0.00 0.00 0.00 84 1016.7
20260831140629 84 77 1.0 2.0 0.00 0.00 0.00 84 1016.8
20260831140124 83 78 1.0 2.0 0.00 0.00 0.00 86 1016.6
20260831135622 82 87 2.0 4.0 0.00 0.00 0.00 86 1016.7
20260831135118 82 73 4.0 4.0 0.00 0.00 0.00 87 1016.8
20260831134614 82 97 2.0 4.0 0.00 0.00 0.00 88 1016.5
20260831134114 81 71 6.0 8.0 0.00 0.00 0.00 88 1016.5
20260831133613 81 74 2.0 6.0 0.00 0.00 0.00 89 1016.5
20260831133108 81 59 2.0 7.0 0.00 0.00 0.00 88 1016.6
20260831132605 81 90 2.0 3.0 0.00 0.00 0.00 89 1016.3
20260831132103 81 75 2.0 6.0 0.00 0.00 0.00 89 1016.3
20260831131558 80 87 0.0 1.0 0.00 0.00 0.00 90 1016.3
20260831131055 80 95 1.0 3.0 0.00 0.00 0.00 90 1016.2
20260831130549 80 77 2.0 2.0 0.00 0.00 0.00 90 1016.2
20260831130045 79 76 2.0 3.0 0.00 0.00 0.00 91 1016.4
20260831125538 79 77 1.0 1.0 0.00 0.00 0.00 92 1016.1
20260831125033 79 82 0.0 1.0 0.00 0.00 0.00 92 1016.3
20260831124530 78 70 1.0 1.0 0.00 0.00 0.00 93 1016.2
20260831124026 78 70 1.0 1.0 0.00 0.00 0.00 93 1016.1
20260831123524 78 70 1.0 2.0 0.00 0.00 0.00 94 1016.3
20260831123019 77 74 0.0 2.0 0.00 0.00 0.00 97 1016.1
20260831122514 77 80 0.0 2.0 0.00 0.00 0.00 99 1016.0
20260831122009 76 80 1.0 1.0 0.00 0.00 0.00 99 1016.2
20260831121509 76 80 0.0 1.0 0.00 0.00 0.00 99 1016.1
20260831121006 76 81 0.0 1.0 0.00 0.00 0.00 99 1016.1
20260831120504 75 81 0.0 0.0 0.00 0.00 0.00 99 1015.8
20260831120000 75 81 0.0 0.0 0.00 0.00 0.00 99 1015.9
20260831115456 75 81 0.0 0.0 0.00 0.00 0.00 99 1015.9
20260831114951 75 81 0.0 0.0 0.00 0.00 0.00 99 1015.9
20260831114449 75 81 0.0 0.0 0.00 0.00 0.00 99 1015.7
20260831113945 75 81 0.0 1.0 0.00 0.00 0.00 99 1015.6
20260831113444 75 81 1.0 1.0 0.00 0.00 0.00 99 1015.8
20260831112940 75 81 0.0 0.0 0.00 0.00 0.00 99 1015.7
20260831112439 75 81 0.0 0.0 0.00 0.00 0.00 99 1015.6
20260831111935 75 81 0.0 0.0 0.00 0.00 0.00 99 1015.6
20260831111431 75 80 0.0 1.0 0.00 0.00 0.00 99 1015.6
20260831110926 75 81 0.0 1.0 0.00 0.00 0.00 99 1015.5
20260831110421 75 81 0.0 1.0 0.00 0.00 0.00 99 1015.6
20260831105920 75 81 1.0 0.0 0.00 0.00 0.00 99 1015.4
20260831105416 75 80 1.0 1.0 0.00 0.00 0.00 99 1015.5
20260831104911 75 81 0.0 0.0 0.00 0.00 0.00 99 1015.3
20260831104407 75 81 0.0 1.0 0.00 0.00 0.00 99 1015.3
20260831103902 75 81 0.0 0.0 0.00 0.00 0.00 99 1015.2
20260831103357 75 81 0.0 0.0 0.00 0.00 0.00 99 1015.2
20260831102852 75 81 0.0 0.0 0.00 0.00 0.00 99 1015.4
20260831102347 75 81 0.0 0.0 0.00 0.00 0.00 99 1015.3
20260831101843 75 81 0.0 0.0 0.00 0.00 0.00 99 1015.1
20260831101342 75 80 0.0 0.0 0.00 0.00 0.00 99 1015.1
20260831100839 75 81 0.0 0.0 0.00 0.00 0.00 99 1015.3
20260831100335 75 81 0.0 1.0 0.00 0.00 0.00 99 1015.1
20260831095834 75 80 0.0 0.0 0.00 0.00 0.00 99 1015.3
20260831095334 75 80 0.0 1.0 0.00 0.00 0.00 99 1015.2
20260831094829 75 81 0.0 0.0 0.00 0.00 0.00 99 1015.1
20260831094324 75 81 0.0 0.0 0.00 0.00 0.00 99 1015.4
20260831093820 75 80 0.0 0.0 0.00 0.00 0.00 99 1015.0
20260831093315 75 81 0.0 0.0 0.00 0.00 0.00 99 1015.2
20260831092812 75 81 0.0 0.0 0.00 0.00 0.00 99 1015.0
20260831092308 75 80 0.0 0.0 0.00 0.00 0.00 99 1014.9
20260831091802 75 80 0.0 0.0 0.00 0.00 0.00 99 1014.9
20260831091258 75 81 0.0 0.0 0.00 0.00 0.00 99 1015.0
20260831090753 76 81 0.0 0.0 0.00 0.00 0.00 99 1015.0
20260831090249 76 80 0.0 0.0 0.00 0.00 0.00 99 1015.0
20260831085745 76 80 0.0 0.0 0.00 0.00 0.00 99 1015.1
20260831085239 76 81 0.0 0.0 0.00 0.00 0.00 99 1014.9
20260831084734 76 81 0.0 1.0 0.00 0.00 0.00 99 1015.1
20260831084231 76 81 0.0 0.0 0.00 0.00 0.00 99 1014.9
20260831083726 76 81 0.0 0.0 0.00 0.00 0.00 99 1014.9
20260831083222 76 80 0.0 0.0 0.00 0.00 0.00 99 1015.0